Location: Newark
(59.8814°N, 10.8258°E)
Time: 19:41:16
(UTC+00:00)

Envisat - Pass Details

Date: 28 January 2020
Orbit: 764 x 766 km, 98.1° (Epoch: 17 February)

Event Time Altitude Azimuth Distance (km) Brightness Sun altitude
Rises 05:55:22 0° 17° (NNE) 3,249 6.3 -12.6°
Reaches altitude 10° 05:57:44 10° 22° (NNE) 2,318 5.6 -12.3°
Maximum altitude 06:02:46 56° 101° (E) 914 3.8 -11.7°
Drops below altitude 10° 06:07:45 10° 180° (S) 2,301 5.7 -11.1°
Sets 06:10:06 0° 184° (S) 3,223 6.4 -10.8°
